Location: Bottom School (historical)
(37.9078°N, 89.3593°W)
Time: 19:55:58
(UTC+00:00)

SL-4 R/B - Pass Details

Date: 08 December 2021
Orbit: 427 x 660 km, 51.6° (Epoch: 17 January)

Event Time Altitude Azimuth Distance (km) Brightness Sun altitude
Exits shadow 12:27:10 - 259° (W) 2,005 4.4 -6.8°
Reaches altitude 10° 12:28:22 10° 266° (W) 1,562 3.8 -6.6°
Maximum altitude 12:31:30 30° 330° (NNW) 845 2.6 -6.0°
Drops below altitude 10° 12:34:50 10° 34° (NE) 1,658 4.6 -5.4°
Sets 12:37:16 0° 45° (NE) 2,584 5.7 -5.0°
